Overview Statistics Trail Chart Weather Telemetry Raw packets
 

This is the latest recevied weather packets stored in our database for station/object W0WFX-2. If no packets are shown the sender has not sent any weather packets the latest 10 day(s).

<< 53 54 55 56 57 58 59 >>
Time Temp. Humidity Pressure Rain* Wind** Luminosity Snow
1788282320 36.67° C 35% 1016.3 hPa 0 mm - 687 W/m² -
1788282015 36.67° C 34% 1016.4 hPa 0 mm - 680 W/m² -
1788281722 36.67° C 35% 1016.1 hPa 0 mm - 672 W/m² -
1788281410 36.67° C 33% 1016.3 hPa 0 mm - 666 W/m² -
1788281106 36.67° C 35% 1016.4 hPa 0 mm - 659 W/m² -
1788280800 36.67° C 35% 1016.5 hPa 0 mm - 648 W/m² -
1788280496 37.22° C 34% 1016.6 hPa 0 mm - 640 W/m² -
1788280194 37.22° C 37% 1016.6 hPa 0 mm - 630 W/m² -
1788279890 36.67° C 36% 1016.7 hPa 0 mm - 621 W/m² -
1788279589 36.11° C 37% 1016.8 hPa 0 mm - 609 W/m² -
1788279288 36.11° C 38% 1016.8 hPa 0 mm - 599 W/m² -
1788278983 35.56° C 40% 1016.7 hPa 0 mm - 590 W/m² -
1788278679 35.56° C 40% 1016.6 hPa 0 mm - 580 W/m² -
1788278378 35° C 40% 1016.6 hPa 0 mm - 573 W/m² -
1788278078 35° C 41% 1016.6 hPa 0 mm - 560 W/m² -
1788277775 33.89° C 43% 1016.7 hPa 0 mm - 548 W/m² -
1788277474 33.89° C 42% 1016.9 hPa 0 mm - 538 W/m² -
1788277169 33.89° C 43% 1016.9 hPa 0 mm - 521 W/m² -
1788276864 33.33° C 45% 1016.7 hPa 0 mm - 508 W/m² -
1788276564 32.78° C 44% 1016.7 hPa 0 mm - 501 W/m² -
1788276264 33.33° C 43% 1016.9 hPa 0 mm - 488 W/m² -
1788275963 32.78° C 46% 1016.8 hPa 0 mm - 473 W/m² -
1788275658 33.33° C 43% 1016.8 hPa 0 mm - 459 W/m² -
1788275358 32.78° C 46% 1016.9 hPa 0 mm - 447 W/m² -
1788275056 31.67° C 47% 1017 hPa 0 mm - 428 W/m² -

* Rain latest hour (hover to see other rain measurements)
** Current wind speed in m/s (hover to see current wind gust speed)